VOI238 MMAA-MMMX

Flight info

Callsign VOI238
Flight time 0h 32m
Altitude 28000
Route ALNUS1B ALNUS UT117 ESPOS ESPOS3A
Aircraft A320/M-SDE3FGHIRWY/LB1

Departure

Time 2026-05-06 03:53
Airport General Juan N. Álvarez International Airport (MMAA)

Arrival

Time 2026-05-06 04:25
Airport Mexico City Benito Juárez International Airport (MMMX)
Time Latitude Longitude Altitude Speed Heading
2026-05-06 03:27 16.75947 -99.75506 23 ft 0 kts 198°
2026-05-06 03:41 16.75962 -99.75501 25 ft 4 kts 194°
2026-05-06 03:41 16.75989 -99.75496 25 ft 4 kts 178°
2026-05-06 03:42 16.76012 -99.75502 25 ft 4 kts 132°
2026-05-06 03:42 16.76018 -99.75510 23 ft 0 kts 109°
2026-05-06 03:44 16.76016 -99.75503 25 ft 2 kts 109°
2026-05-06 03:44 16.76008 -99.75480 23 ft 4 kts 109°
2026-05-06 03:45 16.75995 -99.75441 23 ft 7 kts 109°
2026-05-06 03:45 16.75978 -99.75388 23 ft 9 kts 109°
2026-05-06 03:45 16.75925 -99.75350 23 ft 11 kts 160°
2026-05-06 03:45 16.75879 -99.75283 23 ft 13 kts 109°
2026-05-06 03:46 16.75865 -99.75243 22 ft 1 kts 109°
2026-05-06 03:46 16.75859 -99.75225 25 ft 4 kts 109°
2026-05-06 03:46 16.75845 -99.75181 22 ft 8 kts 109°
2026-05-06 03:46 16.75823 -99.75114 22 ft 12 kts 109°
2026-05-06 03:47 16.75793 -99.75022 22 ft 15 kts 108°
2026-05-06 03:47 16.75754 -99.74899 22 ft 20 kts 109°
2026-05-06 03:47 16.75703 -99.74745 22 ft 25 kts 108°
2026-05-06 03:47 16.75647 -99.74564 22 ft 27 kts 107°
2026-05-06 03:48 16.75590 -99.74368 23 ft 29 kts 107°
2026-05-06 03:48 16.75527 -99.74160 25 ft 31 kts 108°
2026-05-06 03:48 16.75458 -99.73944 23 ft 33 kts 109°
2026-05-06 03:48 16.75384 -99.73714 22 ft 34 kts 107°
2026-05-06 03:49 16.75318 -99.73471 23 ft 36 kts 107°
2026-05-06 03:49 16.75250 -99.73341 24 ft 18 kts 143°
2026-05-06 03:49 16.75177 -99.73344 23 ft 0 kts 195°
2026-05-06 03:51 16.75175 -99.73344 23 ft 1 kts 195°
2026-05-06 03:51 16.75164 -99.73347 23 ft 2 kts 196°
2026-05-06 03:52 16.75129 -99.73358 24 ft 8 kts 197°
2026-05-06 03:52 16.75094 -99.73420 23 ft 14 kts 280°
2026-05-06 03:52 16.75143 -99.73589 22 ft 47 kts 288°
2026-05-06 03:52 16.75324 -99.74171 22 ft 114 kts 288°
2026-05-06 03:53 16.75617 -99.75114 29 ft 158 kts 287°
2026-05-06 03:53 16.75944 -99.76222 601 ft 157 kts 286°
2026-05-06 03:53 16.76262 -99.77298 1263 ft 154 kts 287°
2026-05-06 03:53 16.76580 -99.78351 1892 ft 158 kts 286°
2026-05-06 03:54 16.76947 -99.79515 2255 ft 180 kts 287°
2026-05-06 03:54 16.77362 -99.80822 2546 ft 201 kts 288°
2026-05-06 03:54 16.77827 -99.82285 2783 ft 224 kts 287°
2026-05-06 03:54 16.78342 -99.83908 3140 ft 247 kts 288°
2026-05-06 03:55 16.78898 -99.85656 3814 ft 257 kts 288°
2026-05-06 03:55 16.79735 -99.87316 4625 ft 265 kts 311°
2026-05-06 03:55 16.81293 -99.88372 5345 ft 275 kts 342°
2026-05-06 03:55 16.83137 -99.88902 5836 ft 282 kts 345°
2026-05-06 03:56 16.85075 -99.89425 6522 ft 286 kts 345°
2026-05-06 03:56 16.86983 -99.89939 7270 ft 288 kts 345°
2026-05-06 03:56 16.88930 -99.90469 8061 ft 291 kts 345°
2026-05-06 03:56 16.90900 -99.91010 8811 ft 294 kts 346°
2026-05-06 03:57 16.92881 -99.91558 9536 ft 296 kts 346°
2026-05-06 03:57 16.94916 -99.91887 10201 ft 299 kts
2026-05-06 03:57 16.96965 -99.91513 10832 ft 300 kts 22°
2026-05-06 03:57 16.98836 -99.90500 11251 ft 312 kts 32°
2026-05-06 03:58 17.00758 -99.89293 11374 ft 334 kts 32°
2026-05-06 03:58 17.02803 -99.87991 11608 ft 349 kts 33°
2026-05-06 03:58 17.04878 -99.86666 12216 ft 351 kts 33°
2026-05-06 03:58 17.06948 -99.85351 12834 ft 353 kts 33°
2026-05-06 03:59 17.09048 -99.84022 13479 ft 355 kts 33°
2026-05-06 03:59 17.11176 -99.82680 14072 ft 357 kts 33°
2026-05-06 03:59 17.13315 -99.81333 14597 ft 360 kts 33°
2026-05-06 03:59 17.15464 -99.79981 15103 ft 363 kts 33°
2026-05-06 04:00 17.17646 -99.78616 15581 ft 368 kts 31°
2026-05-06 04:00 17.19991 -99.77482 16076 ft 374 kts 22°
2026-05-06 04:00 17.22509 -99.76750 16569 ft 380 kts 13°
2026-05-06 04:00 17.25131 -99.76452 17077 ft 386 kts
2026-05-06 04:01 17.27838 -99.76495 17467 ft 394 kts
2026-05-06 04:01 17.30617 -99.76558 17765 ft 402 kts
2026-05-06 04:01 17.33428 -99.76619 18198 ft 407 kts
2026-05-06 04:01 17.36295 -99.76680 18405 ft 418 kts
2026-05-06 04:02 17.39237 -99.76741 18583 ft 427 kts
2026-05-06 04:02 17.42234 -99.76802 18859 ft 433 kts
2026-05-06 04:02 17.45258 -99.76866 19211 ft 436 kts
2026-05-06 04:02 17.48292 -99.76932 19597 ft 440 kts
2026-05-06 04:03 17.51369 -99.77001 19932 ft 442 kts
2026-05-06 04:03 17.54446 -99.77070 20359 ft 444 kts
2026-05-06 04:03 17.57490 -99.77135 20909 ft 441 kts
2026-05-06 04:03 17.60568 -99.77200 21335 ft 443 kts
2026-05-06 04:04 17.63660 -99.77266 21742 ft 446 kts
2026-05-06 04:04 17.66775 -99.77331 22043 ft 449 kts
2026-05-06 04:04 17.69901 -99.77396 22374 ft 452 kts
2026-05-06 04:04 17.73054 -99.77451 22720 ft 455 kts
2026-05-06 04:05 17.76242 -99.77513 23048 ft 458 kts
2026-05-06 04:05 17.79430 -99.77613 23339 ft 461 kts 359°
2026-05-06 04:05 17.82640 -99.77757 23611 ft 464 kts 358°
2026-05-06 04:05 17.85876 -99.77936 23887 ft 466 kts 358°
2026-05-06 04:06 17.89128 -99.78130 24155 ft 468 kts 358°
2026-05-06 04:06 17.92387 -99.78326 24376 ft 470 kts 358°
2026-05-06 04:06 17.95599 -99.78516 24712 ft 470 kts 358°
2026-05-06 04:06 17.98854 -99.78703 25131 ft 468 kts 358°
2026-05-06 04:07 18.02108 -99.78881 25554 ft 467 kts 358°
2026-05-06 04:07 18.05362 -99.79050 25964 ft 467 kts 358°
2026-05-06 04:07 18.08590 -99.79216 26384 ft 466 kts 358°
2026-05-06 04:07 18.11827 -99.79384 26750 ft 466 kts 358°
2026-05-06 04:08 18.15063 -99.79554 26856 ft 465 kts 358°
2026-05-06 04:08 18.18302 -99.79728 26878 ft 465 kts 357°
2026-05-06 04:08 18.21531 -99.79902 26870 ft 464 kts 357°
2026-05-06 04:08 18.24748 -99.80076 26871 ft 463 kts 357°
2026-05-06 04:09 18.27987 -99.80251 26872 ft 471 kts 357°
2026-05-06 04:09 18.31238 -99.80425 26870 ft 480 kts 357°
2026-05-06 04:09 18.34604 -99.80604 26880 ft 488 kts 357°
2026-05-06 04:09 18.38029 -99.80795 26882 ft 497 kts 357°
2026-05-06 04:10 18.41512 -99.80995 26881 ft 504 kts 357°
2026-05-06 04:10 18.45036 -99.81185 26879 ft 509 kts 357°
2026-05-06 04:10 18.48573 -99.81370 26897 ft 511 kts 357°
2026-05-06 04:10 18.51905 -99.81543 26898 ft 511 kts 357°
2026-05-06 04:11 18.55458 -99.81730 28260 ft 512 kts 357°
2026-05-06 04:11 18.59019 -99.81924 26507 ft 512 kts 357°
2026-05-06 04:11 18.62583 -99.82113 26494 ft 512 kts 359°
2026-05-06 04:11 18.66112 -99.81825 26494 ft 511 kts 12°
2026-05-06 04:12 18.69451 -99.80721 26496 ft 509 kts 25°
2026-05-06 04:12 18.72487 -99.78830 26499 ft 507 kts 39°
2026-05-06 04:12 18.75040 -99.76289 26526 ft 504 kts 51°
2026-05-06 04:12 18.77018 -99.73263 26525 ft 502 kts 63°
2026-05-06 04:13 18.78504 -99.69933 26524 ft 501 kts 67°
2026-05-06 04:13 18.79930 -99.66596 26105 ft 497 kts 67°
2026-05-06 04:13 18.81347 -99.63261 25197 ft 501 kts 67°
2026-05-06 04:13 18.82774 -99.59893 24067 ft 503 kts 67°
2026-05-06 04:14 18.84202 -99.56521 23171 ft 499 kts 67°
2026-05-06 04:14 18.85579 -99.53270 22596 ft 486 kts 67°
2026-05-06 04:14 18.86925 -99.50088 22449 ft 464 kts 67°
2026-05-06 04:14 18.88214 -99.47042 22271 ft 446 kts 67°
2026-05-06 04:15 18.89462 -99.44092 21420 ft 438 kts 67°
2026-05-06 04:15 18.90692 -99.41169 20293 ft 433 kts 67°
2026-05-06 04:15 18.91906 -99.38289 19227 ft 425 kts 67°
2026-05-06 04:15 18.93097 -99.35468 18490 ft 417 kts 66°
2026-05-06 04:16 18.94273 -99.32682 17976 ft 413 kts 66°
2026-05-06 04:16 18.95420 -99.29907 17759 ft 413 kts 70°
2026-05-06 04:16 18.95977 -99.26951 17480 ft 411 kts 86°
2026-05-06 04:16 18.96269 -99.23949 16758 ft 409 kts 75°
2026-05-06 04:17 18.97420 -99.21292 16150 ft 404 kts 55°
2026-05-06 04:17 18.99364 -99.19120 14950 ft 414 kts 42°
2026-05-06 04:17 19.01581 -99.17194 14546 ft 406 kts 39°
2026-05-06 04:17 19.03752 -99.15385 14508 ft 387 kts 40°
2026-05-06 04:18 19.05766 -99.13621 14420 ft 368 kts 42°
2026-05-06 04:18 19.07635 -99.11852 14350 ft 351 kts 44°
2026-05-06 04:18 19.09341 -99.10129 14296 ft 327 kts 46°
2026-05-06 04:18 19.10899 -99.08493 14195 ft 306 kts 46°
2026-05-06 04:19 19.12359 -99.06937 14102 ft 287 kts 47°
2026-05-06 04:19 19.13706 -99.05500 13996 ft 271 kts 47°
2026-05-06 04:19 19.15019 -99.04109 13896 ft 263 kts 46°
2026-05-06 04:19 19.16470 -99.02974 13670 ft 261 kts 24°
2026-05-06 04:20 19.18259 -99.02678 13573 ft 266 kts 355°
2026-05-06 04:20 19.19991 -99.03363 13177 ft 272 kts 323°
2026-05-06 04:20 19.21399 -99.04716 12826 ft 276 kts 317°
2026-05-06 04:20 19.22792 -99.06120 12483 ft 278 kts 317°
2026-05-06 04:21 19.24193 -99.07524 12122 ft 276 kts 319°
2026-05-06 04:21 19.25676 -99.08783 11710 ft 271 kts 322°
2026-05-06 04:21 19.27133 -99.09989 11287 ft 268 kts 323°
2026-05-06 04:21 19.28601 -99.11200 10864 ft 265 kts 323°
2026-05-06 04:22 19.30076 -99.12372 10471 ft 260 kts 330°
2026-05-06 04:22 19.31708 -99.13053 10141 ft 255 kts 344°
2026-05-06 04:22 19.33438 -99.13587 9762 ft 258 kts 344°
2026-05-06 04:23 19.36776 -99.14591 9054 ft 236 kts 352°
2026-05-06 04:23 19.38414 -99.14431 8822 ft 227 kts 24°
2026-05-06 04:23 19.39630 -99.13527 8597 ft 206 kts 47°
2026-05-06 04:23 19.40473 -99.12393 8388 ft 182 kts 54°
2026-05-06 04:24 19.41157 -99.11341 7958 ft 169 kts 57°
2026-05-06 04:24 19.41752 -99.10290 7598 ft 164 kts 60°
2026-05-06 04:24 19.42325 -99.09244 7319 ft 162 kts 58°
2026-05-06 04:24 19.42904 -99.08236 7120 ft 159 kts 60°
2026-05-06 04:25 19.43438 -99.07268 7045 ft 138 kts 60°
2026-05-06 04:25 19.43852 -99.06519 7049 ft 94 kts 59°
2026-05-06 04:25 19.43975 -99.06171 7048 ft 35 kts 94°
2026-05-06 04:25 19.43936 -99.06076 7054 ft 3 kts 192°
2026-05-06 04:26 19.43884 -99.06134 7054 ft 16 kts 239°
2026-05-06 04:26 19.43823 -99.06243 7054 ft 19 kts 239°
2026-05-06 04:26 19.43748 -99.06378 7054 ft 24 kts 239°
2026-05-06 04:26 19.43651 -99.06551 7060 ft 33 kts 239°
2026-05-06 04:27 19.43522 -99.06701 7054 ft 17 kts 197°
2026-05-06 04:27 19.43423 -99.06776 7054 ft 18 kts 202°
2026-05-06 04:27 19.43320 -99.06847 7054 ft 18 kts 244°
2026-05-06 04:27 19.43258 -99.06964 7055 ft 18 kts 240°
2026-05-06 04:28 19.43198 -99.07086 7055 ft 19 kts 254°
2026-05-06 04:28 19.43148 -99.07213 7055 ft 19 kts 241°
2026-05-06 04:28 19.43068 -99.07363 7055 ft 28 kts 239°
2026-05-06 04:28 19.42951 -99.07569 7060 ft 37 kts 239°
2026-05-06 04:29 19.42801 -99.07829 7060 ft 41 kts 237°
2026-05-06 04:29 19.42684 -99.07839 7060 ft 20 kts 168°
2026-05-06 04:29 19.42558 -99.07893 7060 ft 7 kts 226°
2026-05-06 04:29 19.42495 -99.07879 7062 ft 10 kts 167°
2026-05-06 04:30 19.42488 -99.07878 7062 ft 1 kts 166°
2026-05-06 04:30 19.42483 -99.07877 7062 ft 0 kts 167°